Муствээ

Estonia     58˚49′58″N   26˚55′58″E
temp.,
°C
wind,
m/s
gust,
m/s
humid.,
%
clouds,
%
prec.,
mm/h
press.,
hPa
HPBL,
m
28 november, sat
sat2823:00+3˚ne7108390 0.1 1017935
02:00+2˚nne7107995 0.1 1018926
05:00+2˚nne71088100 0.1 1020684
08:00+3˚ne7108498 0.1 1021714
11:00+2˚ne8108395 0.0 1023799
14:00+2˚ene798097 0.1 1024897
17:00+2˚ene7880100 0.1 1026807
20:00+1˚e6882100 0.1 1027725
29 november, sun
sun2923:00+1˚e678199 0.0 1027790
02:00+1˚e5681100 0.1 1028616
05:00e578699 0.1 1027576
08:00e5688100 0.1 1028515
11:00e5685100 0.1 1028588
14:00ene578499 0.1 1027596
17:00ene6883100 0.0 1025747
20:00ene6789100 0.1 1024579
30 november, mon
mon3023:00ne6897100 1.1 1023410
02:00+1˚ene6897100 2.7 1022384
05:00+3˚e4697100 1.2 1020295
08:00+3˚sse5892100 1.4 1021499
11:00+1˚sse5683100 0.1 1020667
14:00+1˚s4685100 0.1 1020619
17:00s5785100 0.1 1020612
20:00s589098 0.1 1020527
1 december, tue
tue123:00−1˚s589294 0.2 1019478
02:00ssw599296 0.4 1019519
05:00ssw61091100 0.2 1019546
08:00+1˚ssw7108498 0.2 1020644
11:00+1˚ssw71295100 0.2 1021620
14:00+2˚ssw61188100 0.3 1022575
17:00+2˚ssw61188100 0.0 1023646
20:00ssw61088100 0.0 1025535
2 december, wed
wed223:00ssw6987100 0.0 1026548
02:00ssw5985100 0.0 1027565
05:00ssw5886100 0.0 1027534
08:00−1˚s5987100 0.0 1028492
11:00−1˚s588499 0.0 1029467
14:00−1˚s468199 0.0 1028537
17:00−1˚s478489 0.0 1028506
20:00−2˚s478584 0.0 1028415